Location: Bad Salzschlirf
(50.3750°N, 9.3000°E)
Time: 06:53:37
(UTC+01:00)

ISS - Pass Details

Date: 11 November 2018
Orbit: 401 x 409 km, 51.6° (Epoch: 21 November)

Event Time Altitude Azimuth Distance (km) Brightness Sun altitude
Exits shadow 05:08:18 42° 131° (SE) 590 -2.7 -22.6°
Drops below altitude 10° 05:10:38 10° 117° (ESE) 1,462 -0.1 -22.2°
Sets 05:12:43 0° 115° (ESE) 2,321 1.2 -21.9°
